sat.trackr.live / text

‹ back to catalog

TIANMU-1 13

NORAD 58647 · 2023-205C

PAYLOAD ACTIVE UNKNOWN

§ Identity

Operator
Country
PRC
Launch date
2023-12-25
Launch site
JSC
Launch vehicle
Mass (kg)
RCS (m²)

Purposes: earth_obs

External: N2YO · Heavens-Above · Gunter

§ Orbital elements

Epoch: 2026-09-19T23:58:14.667168Z

Period
94.27 min
Inclination
97.3451°
Eccentricity
0.0006184
Mean motion
15.27475406 rev/d
Perigee alt
479.1 km
Apogee alt
487.6 km
Semi-major
6,861.5 km
B*
1.3789e-4
RAAN
283.1257°
Arg perigee
12.1410°
Mean anomaly
347.9977°
Rev number
15,197

§ Raw data

TIANMU-1 131 58647U 23205C   26262.99878087  .00003635  00000+0  13789-3 0  99932 58647  97.3451 283.1257 0006184  12.1410 347.9977 15.27475406151977

JSON: /api/v1/satellites/58647 · /tle

For live sub-satellite position, see the globe view (requires WebGL).

§ Visibility from observer

Set your observer location to see the next 7 days of passes ≥ 10°. The values pass through the URL so the page stays shareable.

No JS? Fill the form by hand. The geolocation button needs JavaScript.